www.pogodaiklimat.ru

Погода и климат >> Архив погоды >> Россия >> Приморский край >> Партизанск


ПОГОДА в Партизанске

  • Прогноз погоды в Партизанске
  • Монитор погоды в Партизанске
  • Климат города

АРХИВ ПОГОДЫ в Партизанске

Время (UTC), дата Ветер
(напр.,м/с)
 
Видим.   Явления Облачность Т
(С)
Тd
(С)
f
(%)
Тe
(С)
Тes
(С)
Комфортность P
(гПа)
Po
(гПа)
Тmin
(С)
Tmax
(С)
R
(мм)
R24
(мм)
S
(см)
00 11.11 СЗ 3
{11}
50 км 4/0
[Ci fib]
+2.7 -6.7 50 -1 0 1024.0 998.1 +0.9
03 11.11 С 2 50 км 9/0
[Ci fib]
+5.8 -6.3 41 +4 +8 1022.2 996.7
06 11.11 СЗ 3 50 км 4/0
[Cc]
+7.3 -7.7 34 +5 +7 1021.0 995.6
09 11.11 С 4 50 км 10/0
[Ac lent]
+4.6 -6.6 44 +1 +1 1021.4 995.8 +7.6
12 11.11 СВ 4 50 км 10/0
[Ac lent]
+3.1 -7.2 47 -1 -1 1021.8 996.1
15 11.11 СЗ 2 50 км 1/0
[Ac lent]
+1.8 -7.0 52 -1 -1 1021.1 995.2
18 11.11 С 3 50 км 5/0
[Ci fib]
+2.0 -8.1 47 -2 -2 1020.6 994.7
21 11.11 С 4 50 км 8/0
[Ci fib]
+1.4 -8.3 48 -3 -3 1020.2 994.3 +0.9
00 12.11 С 3 50 км 3/0
[Cc]
+2.8 -7.8 46 -1 +1 1020.4 994.6 -1.3
03 12.11 С 5 50 км 1/1 1000 м
[Cu hum]
+5.8 -8.5 35 +2 +5 1018.6 993.1
06 12.11 С 4 50 км ясно +6.6 -10.0 29 +4 +5 1017.6 992.2
09 12.11 С 4 50 км ясно +2.7 -8.6 43 -1 -1 1019.6 993.9 +7.0
12 12.11 С 4 50 км ясно +0.4 -7.2 57 -4 -4 1021.1 995.1
15 12.11 С 5 50 км ясно -0.8 -7.4 61 -7 -7 1021.4 995.4
18 12.11 С 6 50 км 8/8 1000 м
[Sc]
-0.2 -5.8 66 -6 -6 1021.2 995.1
21 12.11 С 5
{10}
50 км 10/10 1000 м
[Sc]
+0.5 -5.7 63 -5 -5 1021.4 995.4 -1.1
00 13.11 С 6
{11}
50 км 9/9 1000 м
[Sc]
+1.1 -5.6 61 -5 -5 1022.6 996.6
03 13.11 С 6
{12}
50 км 3/3 1000 м
[Sc]
+2.9 -6.4 50 -2 -1 1021.9 996.1
06 13.11 С 5
{10}
50 км ясно +3.9 -6.8 46 -0 +1 1020.9 995.2
09 13.11 С 5 50 км ясно +0.8 -6.8 57 -5 -5 1022.6 996.5 +4.1
12 13.11 С 5 50 км ясно -0.5 -6.5 64 -6 -6 1024.1 998.0
15 13.11 С 3 50 км ясно -1.1 -6.4 67 -6 -6 1024.6 998.4
18 13.11 С 4 50 км ясно -1.6 -6.3 70 -7 -7 1024.8 998.5
21 13.11 С 4 50 км 6/6 1000 м
[Sc]
-0.9 -6.0 68 -6 -6 1024.6 998.4 -2.4
00 14.11 С 5 50 км 3/0
[Ac As Ci fib]
+1.2 -6.2 58 -4 -3 1025.2 999.2
03 14.11 СВ 3 50 км ясно +4.6 -6.1 46 +2 +6 1024.1 998.4
06 14.11 С 3 50 км ясно +6.7 -6.4 39 +4 +6 1022.9 997.4
09 14.11 С 2 50 км ясно +2.0 -6.2 55 -1 -1 1023.7 997.8 +6.7
12 14.11 С 3 50 км ясно +0.1 -5.8 64 -4 -4 1024.7 998.5
15 14.11 С 2 50 км ясно -2.8 -6.4 76 -7 -7 1025.3 998.9
18 14.11 СВ 2 50 км ясно -4.5 -6.9 83 -9 -9 1025.6 999.0
21 14.11 штиль 0 50 км ясно -4.8 -7.0 85 -6 -6 1025.4 998.8 -4.9
00 15.11 СВ 1 50 км 1/0
[Ci fib]
-2.2 -5.8 76 -4 -3 1025.8 999.5 -5.6
03 15.11 Ю 1 50 км 9/0
[Ci sp]
+5.6 -6.0 43 +5 +10 1023.5 997.9
06 15.11 ЮВ 2 50 км 6/0
[Ci fib]
+7.9 -5.1 39 +7 +8 1022.0 996.6
09 15.11 штиль 0 50 км 3/0
[Ci fib]
+4.0 -1.0 70 +3 +3 1022.9 997.2 +8.2
12 15.11 штиль 0 50 км ясно +2.9 -0.9 76 +2 +2 1022.6 996.8
15 15.11 СЗ 1 50 км 6/6 1000 м
[Sc]
+1.2 -1.3 83 -1 -1 1021.8 995.8
18 15.11 штиль 0 10 км слабый ливневой дождь 10/10 600 м
[Cb cap]
+2.4 +0.3 86 +1 +1 1019.6 993.9
21 15.11 СЗ 5-10
{11}
10 км слабый ливневой дождь 10/10 600 м
[Cb cap]
+3.3 +0.4 81 -2 -2 1019.3 993.7 +0.8 5
00 16.11 С 7-13
{15}
50 км {ливн. осадки} 9/6 600 м
[Cb cap Ac trans]
+0.3 -4.3 71 -6 -6 1022.5 996.5 +0.4
03 16.11 С 8-12
{17}
50 км 9/0
[Ac As]
-1.9 -11.1 49 -9 -9 1022.1 995.8
06 16.11 С 9-14
{15}
50 км 3/0
[Ci]
-1.3 -12.4 43 -9 -9 1020.7 994.5
09 16.11 С 6
{14}
50 км ясно -3.5 -12.3 50 -10 -10 1021.8 995.4 +3.4 0.5
12 16.11 С 5 50 км ясно -4.8 -12.5 55 -11 -11 1023.2 996.6
15 16.11 СВ 3 50 км ясно -6.4 -13.0 59 -12 -12 1024.0 997.2
18 16.11 С 4 50 км ясно -6.2 -15.2 49 -12 -12 1023.9 997.2
21 16.11 С 2 50 км ясно -8.0 -14.5 59 -12 -12 1024.4 997.4 -8.3
00 17.11 СВ 3 50 км ясно -5.3 -14.0 50 -10 -9 1025.0 998.3 -8.8
03 17.11 ЮВ 1 50 км ясно -0.8 -15.3 32 -2 +3 1023.5 997.2
06 17.11 Ю 1 50 км 1/0
[Ci fib]
+0.9 -14.7 30 0 +2 1021.6 995.6
09 17.11 З 1 50 км 8/0
[Ci fib]
-1.4 -16.2 31 -2 -2 1022.8 996.5 +1.2
12 17.11 СЗ 2 50 км 5/0
[Ci fib]
-2.9 -14.7 40 -6 -6 1023.1 996.7
15 17.11 СВ 2 50 км 9/0
[As op Cs]
-4.6 -12.5 54 -8 -8 1022.8 996.3
18 17.11 С 2 50 км 4/4 1000 м
[Sc]
-5.5 -12.5 58 -9 -9 1022.7 996.0

 

Местоположение метеостанции Партизанск (Приморский край, Россия): широта 43.15 долгота 133.00 высота над уровнем моря 208 м.

В архиве по умолчанию представлена погода в Партизанске за последнюю неделю. Архивные данные за месяц целиком и за предыдущие месяцы, начиная с января 2011 года, Вы можете получить, выбрав интересующий диапазон дат из раскрывающегося списка и нажав кнопку "Ввод!".


*Определитесь, кто Вы:
робот инопланетянин человек

Внимание! Время в таблицах - всемирное. Для получения местного времени необходимо прибавить поправку, которая в Партизанске равна 10 ч.

Смотрите также архив погоды в соседних городах и на ближайших метеорологических станциях:

Погода в Находке (Приморский край, Россия) (42 км)
Погода в Многоудобном (Приморский край, Россия) (56 км)
Погода в Лазо (Приморский край, Россия) (71 км)
Погода в Преображении (Приморский край, Россия) (78 км)
Погода в Владивостоке (Приморский край, Россия) (89 км)
Погода на Мысе Назимова (Приморский край, Россия) (90 км)
Погода в Анучино (Приморский край, Россия) (91 км)
Погода в Лучегорске (Приморский край, Россия) (117 км)
Погода в Тимирязевском (Приморский край, Россия) (120 км)
Погода в Чугуевке (Приморский край, Россия) (129 км)

Пояснения к столбцам:

Ветер - указаны скорость ветра в м/с - средняя за 10 мин, порывы в срок и между сроками (в фигурных скобках) и направление, откуда дует ветер: С - северный, СВ - северо-восточный, В - восточный, ЮВ - юго-восточный, Ю - южный, ЮЗ - юго-западный, З - западный, СЗ - северо-западный.
Видимость - горизонтальная дальность видимости в метрах или километрах. При видимости от 1 до 10 км при отсутствии осадков обычно наблюдается дымка, при ухудшении видимости до 1 км и менее - туман. В сухую погоду видимость может ухудшаться дымом, пылью или мглою.
Явления - указаны атмосферные явления, наблюдавшиеся в срок или в последний час перед сроком; фигурными скобками обозначены явления, наблюдавшиеся между сроками (за 1-3 часа до срока); квадратными скобками обозначены град или гололедные отложения с указанием их диаметра в мм.
Облачность - указаны через наклонную черту общая и нижняя облачность в баллах и высота нижней границы облаков в метрах; квадратными скобками обозначены формы облаков: Ci - перистые, Cs - перисто-слоистые, Cc - перисто-кучевые, Ac - высококучевые, As - высокослоистые, Sc - слоисто-кучевые, Ns - слоисто-дождевые, Cu - кучевые, Cb - кучево-дождевые. Подробнее классификацию облаков см. в Атласе облаков (PDF).
T - Температура воздуха - температура, измеренная на высоте 2 м над землей.
Td - Температура точки росы - температура, при понижении до которой содержащийся в воздухе водяной пар достигнет насыщения.
f - Относительная влажность воздуха - влажноcть воздуха, измеренная на высоте 2 м над землей.
Te - Эффективная температура - температура, которую ощущает одетый по сезону человек в тени. Характеристика душности погоды. При расчете учитывается влияние влажности воздуха и скорости ветра на теплоощущения человека.
Tes - Эффективная температура на солнце - температура, которую ощущает человек, с поправкой на солнечный нагрев. Характеристика знойности погоды. Зависит от высоты солнца над горизонтом, облачности и скорости ветра. Ночью, в пасмурную погоду, а также при ветре 12 м/с и более поправка равна нулю.
P - Атмосферное давление - приведенное к уровню моря атмосферное давление.
Po - Атмосферное давление - измеренное на уровне метеостанции атмосферное давление.
Tmin - Минимальная температура - минимум температуры воздуха на высоте 2 м над землей.
Tmax - Максимальная температура - максимум температуры воздуха на высоте 2 м над землей.
R - Количество осадков - Количество выпавших осадков за период времени, мм. При наведении курсора мыши на число - период времени, за который выпало указанное количество осадков.
R24 - Количество осадков - Количество выпавших осадков за 24 часа, мм.
S - Снежный покров - Высота снежного покрова, см. При наведении курсора мыши на число - состояние снежного покрова и степень покрытия местности в баллах.